Regional Weather Roundup
Issued by NWS Upton, NY

Current Version | Previous Version | Text Only | Print | Product List | Glossary On
Versions: 1 2 3 4 5 6 7 8 9 10 11 12 13 14 15 16 17 18 19 20 21 22 23 24 25 26 27
000 ASUS41 KOKX 261709 RWROKX REGIONAL WEATHER ROUNDUP NATIONAL WEATHER SERVICE NEW YORK NY 100 PM EDT WED JUL 26 2017 NOTE: "FAIR" INDICATES FEW OR NO CLOUDS BELOW 12,000 FEET WITH NO SIGNIFICANT WEATHER AND/OR OBSTRUCTIONS TO VISIBILITY. NYZ071-072-176-178-NJZ106-104-261800- NEW YORK CITY METRO AREA CITY SKY/WX TMP DP RH WIND PRES REMARKS Central Park CLOUDY 73 60 63 W8 30.24F Bronx Bot Gard N/A 75 55 50 E7 30.24S LaGuardia APRT MOSUNNY 74 57 55 NE10 30.21F Kennedy INTL MOSUNNY 75 60 59 S13 30.24F Breezy Point N/A 70 N/A N/A SE10 N/A Newark/Liberty MOSUNNY 75 55 49 S10 30.22F Teterboro MOSUNNY 77 57 50 S8G17 30.21F $$ NYZ177-179-078>081-261800- LONG ISLAND NEW YORK CITY SKY/WX TMP DP RH WIND PRES REMARKS Jones Beach N/A 70 N/A N/A S9 N/A Matinecock PT N/A 70 N/A N/A NE12 N/A Farmingdale MOSUNNY 74 59 59 S10 30.22F MacArthur/ISP MOSUNNY 75 59 57 SE8 30.21F Shirley SUNNY 75 61 61 SE9 30.22F Mt Sinai Harb N/A 72 N/A N/A N6 N/A Westhampton SUNNY 73 56 54 SE8 30.24S East Hampton FAIR 71 58 64 S9 30.21F Montauk N/A 72 62 71 VRB6 30.23F $$ NYZ052-065-067-261800- HUDSON VALLEY CITY SKY/WX TMP DP RH WIND PRES REMARKS White Plains MOSUNNY 73 51 46 SE8 30.23F Larchmont Harb N/A 68 N/A N/A NE8 N/A Croton O-T Hud N/A 73 N/A N/A SW6 N/A Newburgh MOSUNNY 75 57 53 VRB6 30.23F Montgomery CLOUDY 75 59 57 MISG 30.20F Poughkeepsie PTSUNNY 75 57 53 SW6 30.20F Albany MOSUNNY 73 55 53 S9 30.21F $$ NJZ001-105-106-008-010-013-015-019>022-104-261800- NEW JERSEY CITY SKY/WX TMP DP RH WIND PRES REMARKS Newark/Liberty MOSUNNY 75 55 49 S10 30.22F Teterboro MOSUNNY 77 57 50 S8G17 30.21F Caldwell CLOUDY 74 57 55 S5 30.22F Somerville CLOUDY 73 60 63 VRB3 30.20F Linden FAIR 74 51 44 S7 30.23F Perth Amboy N/A 70 N/A N/A E13 N/A Sussex CLOUDY 72 62 71 VRB5 30.23S Andover N/A 71 60 68 VRB3 30.24S Trenton CLOUDY 73 61 65 SE5 30.22F Millville CLOUDY 73 66 78 NE3 30.22S Atlantic City CLOUDY 73 61 65 SE8 30.23S Wrightstown CLOUDY 71 61 68 CALM 30.20S Toms River CLOUDY 73 59 61 NE8 30.23F Belmar CLOUDY 71 59 65 SE8 30.24F $$ PAZ047>061-062-071-261800- EASTERN PENNSYLVANIA CITY SKY/WX TMP DP RH WIND PRES REMARKS Philadelphia PTSUNNY 78 62 57 VRB6 30.22F Allentown CLOUDY 73 61 65 E5 30.22F Scranton CLOUDY 70 61 73 VRB3 30.22F $$ CTZ002-004>006-009-010-012-RIZ004-006-007-MAZ004-011-015-261800- SOUTHERN NEW ENGLAND IN CT CITY SKY/WX TMP DP RH WIND PRES REMARKS Bradley INTL MOSUNNY 77 55 46 VRB5 30.21F Hartford MOSUNNY N/A N/A N/A CALM 30.21F Danbury PTSUNNY 73 58 59 SE3 30.23F Wtrbury/Oxford PTSUNNY 73 54 49 VRB5 30.24F Bridgeport SUNNY 74 55 51 S9 30.22F Meriden MOSUNNY 75 56 51 CALM 30.21F New Haven MOSUNNY 74 58 57 S8 30.23S Chester CLOUDY 75 59 57 S9 30.22F Groton MOSUNNY 71 61 70 S9 30.21F Wilimantic PTSUNNY 77 55 46 N3 30.21F IN RI CITY SKY/WX TMP DP RH WIND PRES REMARKS Providence MOSUNNY 77 56 48 E6 30.21F Block Island SUNNY 71 58 63 SE7 30.23F Westerly SUNNY 72 59 63 S9 30.22F IN MA CITY SKY/WX TMP DP RH WIND PRES REMARKS Boston MOSUNNY 73 58 59 SE9 30.19F Worcester PTSUNNY 72 50 45 VRB5 30.23F Westfield SUNNY 76 56 49 VRB5 30.21F Provincetown SUNNY 72 60 66 NW7 30.21F Nantucket SUNNY 71 60 68 SE13 30.21F $$ ANZ330-335-338-340-345-350-353-355-261800- COASTAL MARINE OBSERVATIONS STATION/POSITION TIME SKY/WX TEMP WIND PRES VSBY WAVE AIR SEA DIR/SP/G HT/PER (UTC) (F) (DEG/KT/KT) (MB) (MI) (FT/S) NY HARB ENTRANCE 1550 68 73 80/ 8/ 10 1023.8 2/ 5 20 S FIRE ISLAND 1650 68 73 70/ 8/ 10 1023.0 3/ 5 GREAT SOUTH BAY 1615 69 76 160/ 6/ 8 N/A 23 SSW MONTAUK P 1550 66 71 1024.1 2/11 15 E BARNEGAT LI 1630 72 N/A 3/ 5 HUDSON CANYON 1550 67 74 50/ 16/ 17 1022.7 3/ 4 KINGS POINT 1630 71 72 40/ 9/ 10 1023.4 EXECUTION ROCKS 1645 71 40/ 8/ 10 N/A CENTRAL LI SOUND NOT AVBL EASTERN LI SOUND NOT AVBL ROBBINS REEF 1630 170/ 14/ 15 1024.3 $$ >>>>>>>>>>>>>>>>>>>>>>>>>>>> KEY <<<<<<<<<<<<<<<<<<<<<<<<<<< > < > SKY/WX - Sky Condition/Present Weather < > TMP - Temperature in Fahrenheit < > DP - Dew Point in Fahrenheit < > RH - Relative Humidity in Percent < > WIND - Direction (from) and Speed in MPH < > PRES - Mean Sea Level Pressure (inches of Hg) < > WCI - Wind Chill Index < > VSB - VISIBILITY IN MILES < > HX - HEAT INDEX < > TC - TEMPERATURE IN CELSIUS < > VRB - VARIABLE WIND DIRECTION < > < >>>>>>>>>>>>>>>>>>>>>>>>>>>> KEY <<<<<<<<<<<<<<<<<<<<<<<<<<<

USA.gov is the U.S. government's official web portal to all federal, state and local government web resources and services.